This is the latest recevied weather packets stored in our database for station/object N4XWC. If no packets are shown the sender has not sent any weather packets the latest 10 day(s).
| Time | Temp. | Humidity | Pressure | Rain* | Wind** | Luminosity | Snow |
|---|---|---|---|---|---|---|---|
| 1777448325 | 16.67° C | 100% | 1014.3 hPa | 6.6 mm | - | - | - |
| 1777448026 | 16.67° C | 100% | 1014.3 hPa | 6.35 mm | - | - | - |
| 1777447935 | 16.67° C | 100% | 1014.3 hPa | 6.1 mm | - | - | - |
| 1777447725 | 16.67° C | 100% | 1014.6 hPa | 6.6 mm | - | - | - |
| 1777447424 | 16.67° C | 100% | 1014.6 hPa | 6.1 mm | - | - | - |
| 1777447334 | 16.67° C | 100% | 1014.6 hPa | 6.1 mm | - | - | - |
| 1777447125 | 16.67° C | 100% | 1014.6 hPa | 8.89 mm | - | - | - |
| 1777446824 | 16.67° C | 100% | 1015 hPa | 8.64 mm | - | - | - |
| 1777446734 | 16.67° C | 100% | 1015 hPa | 8.64 mm | - | - | - |
| 1777446525 | 16.67° C | 100% | 1015 hPa | 9.91 mm | - | - | - |
| 1777446226 | 16.67° C | 100% | 1015 hPa | 9.91 mm | - | - | - |
| 1777446135 | 16.67° C | 100% | 1015 hPa | 9.91 mm | - | - | - |
| 1777445925 | 16.67° C | 100% | 1016 hPa | 11.18 mm | - | - | - |
| 1777445625 | 16.67° C | 100% | 1016 hPa | 10.16 mm | - | - | - |
| 1777445535 | 16.67° C | 100% | 1016 hPa | 9.91 mm | - | - | - |
| 1777445324 | 17.22° C | 100% | 1016 hPa | 11.18 mm | - | - | - |
| 1777445026 | 17.22° C | 100% | 1014.7 hPa | 10.41 mm | - | - | - |
| 1777444934 | 17.22° C | 100% | 1014.7 hPa | 10.16 mm | - | - | - |
| 1777444726 | 17.22° C | 100% | 1014.7 hPa | 12.45 mm | - | - | - |
| 1777444424 | 17.22° C | 100% | 1014.7 hPa | 11.68 mm | - | - | - |
| 1777444335 | 17.22° C | 100% | 1014.7 hPa | 11.43 mm | - | - | - |
| 1777444125 | 17.22° C | 100% | 1014 hPa | 13.21 mm | - | - | - |
| 1777443826 | 17.22° C | 100% | 1014 hPa | 12.7 mm | - | - | - |
| 1777443734 | 17.22° C | 100% | 1014 hPa | 12.7 mm | - | - | - |
| 1777443525 | 16.67° C | 100% | 1014 hPa | 13.46 mm | - | - | - |
* Rain latest hour (hover to see other rain measurements)
** Current wind speed in m/s (hover to see current wind gust speed)